Weather History for Glencoe, MN

Change the Weather History Date:

Sunday, November 24, 2013

  Actual Average (KHCD) Record (KHCD)
Temperature  
Mean Temperature 20 °F -  
Max Temperature 35 °F 32 °F 60 °F (2011)
Min Temperature 5 °F 15 °F -12 °F (1985)
Degree Days  
Heating Degree Days 45    
Moisture  
Dew Point 8 °F    
Average Humidity 57    
Maximum Humidity 75    
Minimum Humidity 38    
Precipitation  
Precipitation 0.00 in - - ()
Sea Level Pressure  
Sea Level Pressure 30.30 in    
Wind  
Wind Speed 8 mph (South)    
Max Wind Speed 21 mph    
Max Gust Speed 31 mph    
Visibility 10 miles    
Events      
Averages and records for this station are not official NWS values.
T = Trace of Precipitation, MM = Missing Value Source: NWS Daily Summary

Daily Weather History Graph

Daily Weather History Graph

Search for Another Location

Airport:

Trip Planner

Search our weather history database for the weather conditions in past years. The results will help you decide how hot, cold, wet, or windy it might be!

Date:

Astronomy

Nov. 24, 2013 Rise Set
Actual Time 7:25 AM CST 4:40 PM CST
Civil Twilight 6:53 AM CST 5:12 PM CST
Nautical Twilight 6:16 AM CST 5:48 PM CST
Astronomical Twilight 5:42 AM CST 6:23 PM CST
Moon 11:15 PM CST (11/24) 12:06 PM CST (11/24)
Length of Visible Light 10h 19m
Length of Day
9h 15m
Waning Gibbous, 60% of the Moon is Illuminated
Nov 24
Waning Gibbous
Nov 25
Last Quarter
Dec 2
New
Dec 9
First Quarter
Dec 17
Full

Hourly Weather History & Observations

Time (CST) Temp. Windchill Dew Point Humidity Pressure Visibility Wind Dir Wind Speed Gust Speed Precip Events Conditions
12:13 AM 6.6 °F -0.3 °F -0.8 °F 72% 30.67 in 10.0 mi South 3.5 mph - N/A   Clear
12:33 AM 6.3 °F - -1.1 °F 72% 30.68 in 10.0 mi Calm Calm - N/A   Clear
12:53 AM 5.4 °F - -1.1 °F 75% 30.67 in 10.0 mi Calm Calm - N/A   Clear
1:13 AM 5.7 °F - -1.3 °F 73% 30.66 in 10.0 mi Calm Calm - N/A   Clear
1:33 AM 5.0 °F - -1.7 °F 74% 30.66 in 10.0 mi Calm Calm - N/A   Clear
1:53 AM 5.4 °F - -1.3 °F 74% 30.64 in 10.0 mi Calm Calm - N/A   Clear
2:13 AM 6.6 °F -0.3 °F -0.4 °F 73% 30.63 in 10.0 mi South 3.5 mph - N/A   Clear
2:33 AM 6.8 °F -2.0 °F -0.6 °F 72% 30.62 in 10.0 mi South 4.6 mph - N/A   Clear
2:53 AM 7.3 °F -1.3 °F -0.4 °F 71% 30.61 in 10.0 mi South 4.6 mph - N/A   Clear
3:13 AM 7.5 °F - -0.8 °F 69% 30.61 in 10.0 mi Calm Calm - N/A   Clear
3:33 AM 7.7 °F 1.0 °F 0.5 °F 72% 30.59 in 10.0 mi South 3.5 mph - N/A   Clear
3:53 AM 8.2 °F 1.6 °F -0.4 °F 68% 30.59 in 10.0 mi SSE 3.5 mph - N/A   Clear
4:13 AM 7.7 °F -0.9 °F -0.4 °F 70% 30.58 in 10.0 mi SSE 4.6 mph - N/A   Clear
4:33 AM 7.9 °F -2.2 °F -0.4 °F 69% 30.56 in 10.0 mi SSE 5.8 mph - N/A   Clear
4:53 AM 8.6 °F -1.3 °F -0.0 °F 68% 30.56 in 10.0 mi SSE 5.8 mph - N/A   Clear
5:13 AM 9.1 °F -0.7 °F -0.0 °F 66% 30.55 in 10.0 mi South 5.8 mph - N/A   Clear
5:33 AM 9.5 °F -1.5 °F 0.5 °F 67% 30.54 in 10.0 mi SSE 6.9 mph - N/A   Clear
5:54 AM 10.0 °F 0.4 °F 0.5 °F 65% 30.54 in 10.0 mi South 5.8 mph - N/A   Clear
6:13 AM 10.4 °F -1.5 °F 0.7 °F 65% 30.52 in 10.0 mi South 8.1 mph - N/A   Clear
6:33 AM 10.4 °F 0.8 °F 1.0 °F 66% 30.51 in 10.0 mi SSE 5.8 mph - N/A   Clear
6:54 AM 10.9 °F -0.8 °F 1.4 °F 65% 30.50 in 10.0 mi SSE 8.1 mph - N/A   Clear
7:13 AM 11.1 °F -1.6 °F 1.4 °F 65% 30.49 in 10.0 mi SSE 9.2 mph - N/A   Clear
7:33 AM 11.1 °F -1.6 °F 1.8 °F 66% 30.48 in 10.0 mi South 9.2 mph 16.1 mph N/A   Clear
7:54 AM 11.8 °F -0.7 °F 2.1 °F 65% 30.47 in 10.0 mi South 9.2 mph - N/A   Clear
8:13 AM 12.7 °F -1.1 °F 2.3 °F 63% 30.46 in 10.0 mi South 11.5 mph 18.4 mph N/A   Clear
8:33 AM 14.0 °F 2.0 °F 3.4 °F 63% 30.45 in 10.0 mi South 9.2 mph 18.4 mph N/A   Clear
8:54 AM 15.6 °F 3.2 °F 4.5 °F 61% 30.44 in 10.0 mi South 10.4 mph 19.6 mph N/A   Clear
9:13 AM 17.2 °F 5.2 °F 5.2 °F 59% 30.43 in 10.0 mi South 10.4 mph 20.7 mph N/A   Clear
9:33 AM 19.4 °F 6.0 °F 5.7 °F 55% 30.42 in 10.0 mi South 13.8 mph 24.2 mph N/A   Clear
9:53 AM 20.3 °F 6.1 °F 6.1 °F 54% 30.40 in 10.0 mi South 16.1 mph 26.5 mph N/A   Clear
10:14 AM 21.9 °F 9.2 °F 6.6 °F 52% 30.38 in 10.0 mi South 13.8 mph 25.3 mph N/A   Clear
10:33 AM 23.0 °F 9.2 °F 6.8 °F 50% 30.36 in 10.0 mi South 17.3 mph 24.2 mph N/A   Clear
10:53 AM 24.8 °F 10.3 °F 7.7 °F 48% 30.35 in 10.0 mi South 20.7 mph 28.8 mph N/A   Clear
11:13 AM 26.2 °F 13.4 °F 8.4 °F 47% 30.32 in 10.0 mi South 17.3 mph 24.2 mph N/A   Clear
11:33 AM 26.8 °F 13.7 °F 8.4 °F 46% 30.31 in 10.0 mi South 18.4 mph 31.1 mph N/A   Clear
11:54 AM 28.2 °F 16.8 °F 9.3 °F 45% 30.28 in 10.0 mi South 15.0 mph 27.6 mph N/A   Clear
12:13 PM 29.3 °F 17.7 °F 9.9 °F 44% 30.26 in 10.0 mi South 16.1 mph 25.3 mph N/A   Clear
12:33 PM 30.2 °F 18.9 °F 10.2 °F 43% 30.24 in 10.0 mi South 16.1 mph 26.5 mph N/A   Clear
12:53 PM 31.1 °F 19.7 °F 10.6 °F 42% 30.22 in 10.0 mi South 17.3 mph 29.9 mph N/A   Clear
1:13 PM 32.0 °F 22.1 °F 10.9 °F 42% 30.21 in 10.0 mi South 13.8 mph 27.6 mph N/A   Clear
1:33 PM 32.7 °F 21.8 °F 11.3 °F 41% 30.20 in 10.0 mi South 17.3 mph 26.5 mph N/A   Clear
1:53 PM 33.4 °F 22.7 °F 11.3 °F 40% 30.19 in 10.0 mi South 17.3 mph 24.2 mph N/A   Clear
2:13 PM 34.7 °F 25.1 °F 11.3 °F 38% 30.17 in 10.0 mi South 15.0 mph 27.6 mph N/A   Clear
2:33 PM 34.3 °F 23.2 °F 11.3 °F 39% 30.17 in 10.0 mi South 19.6 mph 27.6 mph N/A   Clear
2:53 PM 34.7 °F 24.7 °F 11.5 °F 38% 30.15 in 10.0 mi South 16.1 mph 24.2 mph N/A   Clear
3:13 PM 35.1 °F 24.1 °F 11.8 °F 38% 30.14 in 10.0 mi South 19.6 mph 26.5 mph N/A   Clear
3:33 PM 34.7 °F 25.5 °F 12.6 °F 40% 30.13 in 10.0 mi South 13.8 mph 21.9 mph N/A   Clear
3:53 PM 34.5 °F 24.5 °F 12.9 °F 41% 30.12 in 10.0 mi South 16.1 mph 21.9 mph N/A   Clear
4:13 PM 34.2 °F 24.8 °F 13.1 °F 42% 30.11 in 10.0 mi South 13.8 mph 21.9 mph N/A   Clear
4:33 PM 33.3 °F 24.1 °F 13.8 °F 45% 30.11 in 10.0 mi South 12.7 mph - N/A   Clear
4:53 PM 32.9 °F 24.1 °F 14.0 °F 46% 30.10 in 10.0 mi South 11.5 mph - N/A   Clear
5:13 PM 32.2 °F 22.3 °F 14.0 °F 47% 30.10 in 10.0 mi South 13.8 mph 19.6 mph N/A   Clear
5:33 PM 31.5 °F 21.8 °F 14.7 °F 50% 30.09 in 10.0 mi South 12.7 mph 20.7 mph N/A   Clear
5:53 PM 30.9 °F 20.2 °F 14.7 °F 51% 30.07 in 10.0 mi South 15.0 mph 21.9 mph N/A   Clear
6:13 PM 30.6 °F 19.8 °F 14.5 °F 51% 30.07 in 10.0 mi South 15.0 mph 23.0 mph N/A   Clear
6:33 PM 30.6 °F 20.2 °F 14.4 °F 51% 30.05 in 10.0 mi South 13.8 mph 23.0 mph N/A   Clear
6:53 PM 30.0 °F 18.7 °F 14.4 °F 52% 30.04 in 10.0 mi South 16.1 mph 24.2 mph N/A   Clear
7:13 PM 29.3 °F 17.0 °F 14.4 °F 54% 30.02 in 10.0 mi South 18.4 mph 28.8 mph N/A   Clear
7:33 PM 28.8 °F 17.0 °F 14.2 °F 55% 30.01 in 10.0 mi South 16.1 mph 27.6 mph N/A   Clear
7:53 PM 28.2 °F 16.8 °F 14.2 °F 56% 30.02 in 10.0 mi South 15.0 mph 21.9 mph N/A   Clear
8:13 PM 28.0 °F 15.7 °F 14.0 °F 56% 30.01 in 10.0 mi South 17.3 mph 24.2 mph N/A   Clear
8:33 PM 27.9 °F 15.5 °F 14.0 °F 56% 30.01 in 10.0 mi South 17.3 mph 24.2 mph N/A   Clear
8:53 PM 27.5 °F 15.0 °F 14.0 °F 57% 30.00 in 10.0 mi South 17.3 mph 26.5 mph N/A   Clear
9:13 PM 27.5 °F 14.6 °F 14.0 °F 57% 30.00 in 10.0 mi South 18.4 mph 23.0 mph N/A   Clear
9:33 PM 27.3 °F 16.6 °F 14.2 °F 58% 30.01 in 10.0 mi South 12.7 mph 21.9 mph N/A   Clear
9:53 PM 27.5 °F 17.4 °F 14.5 °F 58% 30.00 in 10.0 mi South 11.5 mph 18.4 mph N/A   Clear
10:13 PM 27.7 °F 17.1 °F 14.5 °F 58% 30.00 in 10.0 mi South 12.7 mph 19.6 mph N/A   Clear
10:33 PM 27.7 °F 17.1 °F 14.7 °F 58% 29.99 in 10.0 mi South 12.7 mph - N/A   Clear
10:53 PM 28.0 °F 17.5 °F 14.9 °F 58% 29.98 in 10.0 mi South 12.7 mph 18.4 mph N/A   Clear
11:13 PM 28.4 °F 17.5 °F 15.1 °F 57% 29.98 in 10.0 mi SSW 13.8 mph 23.0 mph N/A   Clear
11:34 PM 28.4 °F 18.0 °F 15.3 °F 58% 29.97 in 10.0 mi South 12.7 mph 18.4 mph N/A   Clear
11:53 PM 28.9 °F 18.2 °F 15.6 °F 58% 29.97 in 10.0 mi SSW 13.8 mph 18.4 mph N/A   Clear